NOAA 16 DEB, 41196

Orbit data source: Space-Track

NOAA 16 DEB, 41196 is space debris in SSO originally from a launch on Thu, 21 Sep 2000 UTC launched from the Air Force Western Test Range (AFWTR). Debris objects in space refer to the collection of defunct objects orbiting the Earth. Examples of debris include non-operational satellites, rocket bodies, and fragments generated from explosions, collisions, or faulty payload assembly.

Loading next visibility...
Identifier
41196, 2000-055CZ
Orbit
SSO
Country
Flag of USUS
Related business
Manufacturer
Unknown
Mission
Spacecraft
Bus & Motor
Unknown
Mass
Unknown
Launch date (UTC)
2000-09-21 (25 years ago)
Launch vehicle
Unknown
Launch site
Air Force Western Test Range (AFWTR)
Object type
Payload
Rocket body
Debris
Shape & HBR
Unknown shape, 0.1 m
Radar Cross Section
Small (<0.1 m²)

Expand to show TLE details & history
Last TLE update: 2 days ago

TLE from 2 days ago
0 NOAA 16 DEB
1 41196U 00055CZ  26035.84343456  .00004182  00000-0  22066-2 0  9997
2 41196  98.7441  59.9199 0051610 316.4502  43.2601 14.13719056519448
Epoch: 2026-02-04T20:14Z
TLE epoch observation values (Epoch: 2026-02-04T20:14:32.745Z)
Latitude
-0.0001°
Longitude
-18.72072°
Altitude
822.509 km
Speed
7.456 km/s
True Right ascension
03h 59m 40s
True Declination
0° 00' 00"
Sunlit
Object was in daylight at epoch
Visualization orbit readout
Latitude
Unknown
Longitude
Unknown
Altitude
Unknown
Speed
Unknown
Apparent Right ascension
Unknown
Apparent Declination
Unknown
Sunlit
N/A
Visualization observer readout
Local Sidereal Time
18:22:52
Azimuth
Unknown
Elevation
Unknown
Doppler factor
Unknown
Orbital elements
Apogee altitude
881.114 km
Perigee altitude
806.569 km
Semi-major axis
7,221.979 km
Eccentricity
0.00516
Inclination
98.7441°
RAAN
59.9199°
Arg. of periapsis
316.4502°
True anomaly
43.66731°
Mean anomaly
43.2601°
Eccentric anomaly
43.46351°
Mean motion
3.53638 °/min
Orbital period
101.8 mins
BSTAR
0.0022066
Loading maneuver chart data...
Computing Atmospheric mass density...
Loading historical data...
Loading historical data...
Loading historical data...
Loading historical data...
Loading historical data...
Loading historical data...
Loading historical data...

Documentation

Showing up to 5 results
|